Weather History for KAKQ - January, 2013

Change the Weather History Date:

Thursday, January 3, 2013

  Actual Average (KJGG) Record (KJGG)
Temperature  
Mean Temperature 33 °F -  
Max Temperature 39 °F 50 °F 73 °F (2004)
Min Temperature 27 °F 29 °F 15 °F (1957)
Degree Days  
Heating Degree Days 32    
Moisture  
Dew Point 25 °F    
Average Humidity 70    
Maximum Humidity 92    
Minimum Humidity 55    
Precipitation  
Precipitation 0.00 in - - ()
Sea Level Pressure  
Sea Level Pressure 30.23 in    
Wind  
Wind Speed 1 mph (NNE)    
Max Wind Speed 5 mph    
Max Gust Speed -    
Visibility 8 miles    
Events      
Averages and records for this station are not official NWS values.
T = Trace of Precipitation, MM = Missing Value Source: NWS Daily Summary

Daily Weather History Graph

Daily Weather History Graph

Search for Another Location

Airport or City:

Trip Planner

Search our weather history database for the weather conditions in past years. The results will help you decide how hot, cold, wet, or windy it might be!

Date:

Astronomy

Jan. 03, 2013 Rise Set
Actual Time 7:21 AM EST 5:04 PM EST
Civil Twilight 6:52 AM EST 5:32 PM EST
Nautical Twilight 6:20 AM EST 6:05 PM EST
Astronomical Twilight 5:48 AM EST 6:36 PM EST
Moon 11:26 PM EST (1/3) 10:41 AM EST (1/3)
Length of Visible Light 10h 40m
Length of Day
9h 42m
Waning Gibbous, 65% of the Moon is Illuminated
Jan 3
Waning Gibbous
Jan 4
Last Quarter
Jan 11
New
Jan 18
First Quarter
Jan 26
Full

Hourly Weather History & Observations

Time (EST) Temp. Windchill Dew Point Humidity Pressure Visibility Wind Dir Wind Speed Gust Speed Precip Events Conditions
12:54 AM 35.1 °F - 28.9 °F 78% 30.22 in 8.0 mi Calm Calm - N/A   Clear
1:54 AM 35.1 °F - 28.9 °F 78% 30.23 in 8.0 mi Calm Calm - N/A   Clear
2:54 AM 35.1 °F - 27.0 °F 72% 30.23 in 9.0 mi Calm Calm - N/A   Clear
3:54 AM 34.0 °F - 24.1 °F 67% 30.21 in 10.0 mi Calm Calm - N/A   Clear
4:54 AM 34.0 °F - 24.1 °F 67% 30.22 in 10.0 mi Calm Calm - N/A   Mostly Cloudy
5:54 AM 34.0 °F - 27.0 °F 75% 30.22 in 10.0 mi Calm Calm - N/A   Overcast
6:54 AM 34.0 °F - 23.0 °F 64% 30.24 in 10.0 mi Calm Calm - N/A   Overcast
7:54 AM 34.0 °F 31.0 °F 23.0 °F 64% 30.25 in 10.0 mi NNE 3.5 mph - N/A   Overcast
8:54 AM 34.0 °F 29.8 °F 21.9 °F 61% 30.26 in 10.0 mi North 4.6 mph - N/A   Overcast
9:54 AM 36.0 °F 32.1 °F 23.0 °F 59% 30.27 in 10.0 mi North 4.6 mph - N/A   Overcast
10:54 AM 37.0 °F - 24.1 °F 59% 30.26 in 10.0 mi Calm Calm - N/A   Overcast
11:54 AM 37.9 °F 35.5 °F 25.0 °F 60% 30.23 in 10.0 mi South 3.5 mph - N/A   Overcast
12:52 PM 37.4 °F - 24.8 °F 60% 30.19 in 10.0 mi Calm Calm - N/A   Scattered Clouds
12:54 PM 39.0 °F - 25.0 °F 57% 30.20 in 10.0 mi Calm Calm - N/A   Scattered Clouds
1:21 PM 39.2 °F - 24.8 °F 56% 30.19 in 10.0 mi Calm Calm - N/A   Mostly Cloudy
1:54 PM 39.9 °F - 25.0 °F 55% 30.19 in 10.0 mi Calm Calm - N/A   Overcast
2:36 PM 39.2 °F - 26.6 °F 61% 30.19 in 9.0 mi Calm Calm - N/A   Overcast
2:54 PM 39.9 °F - 25.0 °F 55% 30.19 in 9.0 mi Calm Calm - N/A   Overcast
3:54 PM 39.9 °F 37.8 °F 27.0 °F 60% 30.20 in 10.0 mi SW 3.5 mph - N/A   Clear
4:54 PM 37.0 °F - 30.0 °F 76% 30.21 in 10.0 mi Calm Calm - N/A   Clear
5:54 PM 34.0 °F - 28.9 °F 82% 30.23 in 9.0 mi Calm Calm - N/A   Clear
6:54 PM 30.9 °F - 27.0 °F 85% 30.24 in 7.0 mi Calm Calm - N/A   Clear
7:54 PM 28.9 °F - 26.1 °F 89% 30.25 in 5.0 mi Calm Calm - N/A   Clear
8:54 PM 28.0 °F - 26.1 °F 92% 30.25 in 4.0 mi Calm Calm - N/A   Clear
9:54 PM 27.0 °F - 24.1 °F 89% 30.25 in 4.0 mi Calm Calm - N/A   Clear
10:54 PM 27.0 °F - 24.1 °F 89% 30.25 in 4.0 mi Calm Calm - N/A   Clear
11:54 PM 27.0 °F - 23.0 °F 85% 30.25 in 4.0 mi Calm Calm - N/A   Clear